Regional Weather Roundup
Issued by NWS Little Rock, AR

Home | Current Version | Previous Version | Text Only | Print | Product List | Glossary On
Versions: 1 2 3 4 5 6 7 8 9 10 11 12 13 14 15 16 17 18 19 20 21 22 23 24 25 26 27 28 29 30 31 32 33 34 35 36 37 38 39 40 41 42 43 44 45 46 47 48 49 50
257
ASUS44 KLZK 211212
RWRLZK

WEATHER ROUNDUP FOR ARKANSAS
NATIONAL WEATHER SERVICE LITTLE ROCK AR
600 AM CST TUE NOV 21 2017

NOTE: "FAIR" INDICATES FEW OR NO CLOUDS BELOW 12,000 FEET WITH NO
SIGNIFICANT WEATHER AND/OR OBSTRUCTIONS TO VISIBILITY.

ARZ001-003-010-029-211300-
NORTHWEST ARKANSAS

CITY           SKY/WX    TMP DP  RH WIND       PRES   REMARKS
FAYETTEVILLE   CLOUDY    46  33  60 SW8       29.86S
6HR MIN TEMP:  43; 6HR MAX TEMP:  50;

FORT SMITH     CLOUDY    41  35  79 NE3       29.89S
6HR MIN TEMP:  39; 6HR MAX TEMP:  44;

HARRISON       CLOUDY    42  31  64 SE7       29.87S
6HR MIN TEMP:  41; 6HR MAX TEMP:  49;

BENTONVILLE    CLOUDY    44  32  62 S7        29.86S
6HR MIN TEMP:  43; 6HR MAX TEMP:  49;

ROGERS         PTCLDY    46  33  60 S12       29.85S
6HR MIN TEMP:  44; 6HR MAX TEMP:  49;

SILOAM SPGS    CLOUDY    45  34  65 S8        29.86R
6HR MIN TEMP:  44; 6HR MAX TEMP:  49;

HIGHFILL       CLOUDY    44  33  65 S8        29.85S
6HR MIN TEMP:  43; 6HR MAX TEMP:  49;

SPRINGDALE     CLEAR     46  32  57 S6        29.87
$$

ARZ004-005-016-211300-
NORTH CENTRAL ARKANSAS

CITY           SKY/WX    TMP DP  RH WIND       PRES   REMARKS
BATESVILLE     CLOUDY    42  30  62 SE6       29.96R
6HR MIN TEMP:  41; 6HR MAX TEMP:  44;

FLIPPIN        MOCLDY    43  31  62 SE3       29.91R
6HR MIN TEMP:  39; 6HR MAX TEMP:  47;

MTN HOME       PTCLDY    42  32  67 S7        29.89
6HR MIN TEMP:  41; 6HR MAX TEMP:  46;

$$

ARZ040-041-211300-
WEST CENTRAL ARKANSAS

CITY           SKY/WX    TMP DP  RH WIND       PRES   REMARKS
MENA           PTCLDY    43  41  93 CALM      29.93R
MOUNT IDA      CLEAR     42  36  79 CALM      29.91R
6HR MIN TEMP:  40; 6HR MAX TEMP:  51;

$$

ARZ009-017-025-026-028-211300-
NORTHEAST ARKANSAS

CITY           SKY/WX    TMP DP  RH WIND       PRES   REMARKS
JONESBORO      CLOUDY    36  31  82 S6        29.99R
6HR MIN TEMP:  33; 6HR MAX TEMP:  42;

NEWPORT        CLOUDY    36  31  82 SE3       29.99R
6HR MIN TEMP:  35; 6HR MAX TEMP:  37;

WALNUT RIDGE     N/A     36  31  82 S9        29.97S
6HR MIN TEMP:  35; 6HR MAX TEMP:  41;

BLYTHEVILLE    MOCLDY    38  32  79 S10       30.01R
6HR MIN TEMP:  37; 6HR MAX TEMP:  39;

$$

ARZ022-023-033-042-044-211300-
CENTRAL ARKANSAS

CITY           SKY/WX    TMP DP  RH WIND       PRES   REMARKS
LITTLE ROCK    CLOUDY    35  31  85 S6        29.98S WCI  30
6HR MIN TEMP:  35; 6HR MAX TEMP:  41;

N LITTLE ROCK    N/A     40  31  72 SW7       29.99R
6HR MIN TEMP:  40; 6HR MAX TEMP:  44;

JACKSONVILLE   PTCLDY    40  30  67 CALM      29.96R
6HR MIN TEMP:  39; 6HR MAX TEMP:  45;

SEARCY         PTCLDY    33  33 100 S3        29.98S
6HR MIN TEMP:  33; 6HR MAX TEMP:  41;

HOT SPRINGS    PTCLDY    39  33  79 CALM      29.96R
6HR MIN TEMP:  38; 6HR MAX TEMP:  47;

RUSSELLVILLE   CLEAR     34  31  88 CALM      29.92R
6HR MIN TEMP:  34; 6HR MAX TEMP:  43;

CLINTON        FAIR      32  32 100 VRB3      29.96R
$$

ARZ036-211300-
EAST ARKANSAS

CITY           SKY/WX    TMP DP  RH WIND       PRES   REMARKS
WEST MEMPHIS   CLOUDY    35  33  92 S7        30.01R WCI  29
6HR MIN TEMP:  32; 6HR MAX TEMP:  37;

$$

ARZ050-053-066-070-073-211300-
SOUTHWEST ARKANSAS

CITY           SKY/WX    TMP DP  RH WIND       PRES   REMARKS
ARKADELPHIA    FAIR      30  27  88 CALM      29.99S
6HR MIN TEMP:  29; 6HR MAX TEMP:  32;

CAMDEN         CLOUDY    34  30  86 CALM      29.97F
TEXARKANA      CLEAR     44  36  73 S9        29.93F
6HR MIN TEMP:  43; 6HR MAX TEMP:  47;

EL DORADO      CLEAR     37  35  92 CALM      29.98S
6HR MIN TEMP:  35; 6HR MAX TEMP:  38;

DE QUEEN       CLOUDY    34  34 100 E3        29.93R
6HR MIN TEMP:  33; 6HR MAX TEMP:  37;

$$

ARZ056-057-069-211300-
SOUTHEAST ARKANSAS

CITY           SKY/WX    TMP DP  RH WIND       PRES   REMARKS
PINE BLUFF     PTCLDY    36  30  79 SE3       30.00S
6HR MIN TEMP:  36; 6HR MAX TEMP:  39;

STUTTGART      PTCLDY    41  31  67 S6        30.00R
6HR MIN TEMP:  38; 6HR MAX TEMP:  43;

MONTICELLO     PTCLDY    35  31  85 CALM      30.01S
6HR MIN TEMP:  34; 6HR MAX TEMP:  40;


$$






USA.gov is the U.S. government's official web portal to all federal, state and local government web resources and services.